This is the latest recevied weather packets stored in our database for station/object KD9IXX-13. If no packets are shown the sender has not sent any weather packets the latest 10 day(s).
| Time | Temp. | Humidity | Pressure | Rain* | Wind** | Luminosity | Snow |
|---|---|---|---|---|---|---|---|
| 1787864702 | 26.67° C | 65% | 1017.8 hPa | 0 mm | - | 197 W/m² | - |
| 1787862902 | 26.11° C | 67% | 1018 hPa | 0 mm | - | 155 W/m² | - |
| 1787862302 | 26.67° C | 64% | 1017.8 hPa | 0 mm | - | 150 W/m² | - |
| 1787862002 | 28.33° C | 61% | 1018.1 hPa | 0 mm | - | 171 W/m² | - |
| 1787861102 | 28.89° C | 55% | 1017.7 hPa | 0 mm | - | 636 W/m² | - |
| 1787860202 | 27.78° C | 58% | 1017.7 hPa | 0 mm | - | 701 W/m² | - |
| 1787859602 | 28.33° C | 56% | 1017.8 hPa | 0 mm | - | 674 W/m² | - |
| 1787858101 | 28.33° C | 58% | 1017.9 hPa | 0 mm | - | 698 W/m² | - |
| 1787856902 | 28.33° C | 59% | 1017.9 hPa | 0 mm | - | 731 W/m² | - |
| 1787856602 | 27.22° C | 60% | 1018 hPa | 0 mm | - | 707 W/m² | - |
| 1787856302 | 26.67° C | 61% | 1017.9 hPa | 0 mm | - | 714 W/m² | - |
| 1787856002 | 25.56° C | 66% | 1018.3 hPa | 0 mm | - | 720 W/m² | - |
| 1787855402 | 25.56° C | 65% | 1017.9 hPa | 0 mm | - | 127 W/m² | - |
| 1787854802 | 27.22° C | 63% | 1018.1 hPa | 0 mm | - | 182 W/m² | - |
| 1787853302 | 26.67° C | 65% | 1018 hPa | 0 mm | - | 212 W/m² | - |
| 1787853002 | 27.22° C | 61% | 1018 hPa | 0 mm | - | 732 W/m² | - |
| 1787852701 | 27.22° C | 63% | 1018.2 hPa | 0 mm | - | 716 W/m² | - |
| 1787852402 | 25.56° C | 65% | 1018 hPa | 0 mm | - | 716 W/m² | - |
| 1787851503 | 26.67° C | 65% | 1018.4 hPa | 0 mm | - | 682 W/m² | - |
| 1787850003 | 25.56° C | 68% | 1018.3 hPa | 0 mm | - | 717 W/m² | - |
| 1787849701 | 26.11° C | 65% | 1018.5 hPa | 0 mm | - | 681 W/m² | - |
| 1787849402 | 26.67° C | 65% | 1018.4 hPa | 0 mm | - | 693 W/m² | - |
| 1787849102 | 26.11° C | 71% | 1018.6 hPa | 0 mm | - | 688 W/m² | - |
| 1787848801 | 25.56° C | 68% | 1018.4 hPa | 0 mm | - | 716 W/m² | - |
| 1787848502 | 26.67° C | 68% | 1018.4 hPa | 0 mm | - | 189 W/m² | - |
* Rain latest hour (hover to see other rain measurements)
** Current wind speed in m/s (hover to see current wind gust speed)